KLM87P EHAM-LEBL

Flight info

Callsign KLM87P
Flight time 1h 56m
Altitude 35000
Route WOODY N872 MEDIL DCT KOVIN DCT DUCRA UM728 RESMI UN857 DISAK DCT DIRMO DCT VALKU DCT ATSUP DCT MINSO DCT DEGOL DCT PPG DCT ALBER
Aircraft A21N/M-SDE2E3FGHIRWXY/LB1

Departure

Time 2026-05-07 18:22
Airport Amsterdam Airport Schiphol (EHAM)

Arrival

Time 2026-05-07 20:19
Airport Josep Tarradellas Barcelona-El Prat Airport (LEBL)
Time Latitude Longitude Altitude Speed Heading
2026-05-07 18:03 52.30625 4.76633 4 ft 0 kts 238°
2026-05-07 18:12 52.30628 4.76641 4 ft 4 kts 237°
2026-05-07 18:12 52.30643 4.76677 4 ft 4 kts 231°
2026-05-07 18:12 52.30662 4.76708 4 ft 4 kts 214°
2026-05-07 18:13 52.30683 4.76721 4 ft 4 kts 165°
2026-05-07 18:13 52.30690 4.76717 4 ft 0 kts 150°
2026-05-07 18:15 52.30667 4.76738 4 ft 11 kts 150°
2026-05-07 18:15 52.30604 4.76836 4 ft 13 kts 115°
2026-05-07 18:15 52.30534 4.76941 4 ft 15 kts 148°
2026-05-07 18:16 52.30448 4.76928 4 ft 16 kts 240°
2026-05-07 18:16 52.30391 4.76774 4 ft 16 kts 236°
2026-05-07 18:16 52.30328 4.76612 4 ft 17 kts 239°
2026-05-07 18:16 52.30261 4.76439 4 ft 19 kts 238°
2026-05-07 18:17 52.30192 4.76254 4 ft 20 kts 238°
2026-05-07 18:17 52.30118 4.76062 4 ft 20 kts 238°
2026-05-07 18:17 52.30041 4.75861 4 ft 21 kts 238°
2026-05-07 18:17 52.29964 4.75654 4 ft 22 kts 239°
2026-05-07 18:18 52.29882 4.75443 4 ft 22 kts 238°
2026-05-07 18:18 52.29830 4.75251 4 ft 19 kts 278°
2026-05-07 18:18 52.29895 4.75099 5 ft 15 kts 311°
2026-05-07 18:18 52.29965 4.74966 4 ft 16 kts 310°
2026-05-07 18:19 52.30040 4.74823 5 ft 17 kts 313°
2026-05-07 18:19 52.30100 4.74718 9 ft 11 kts 311°
2026-05-07 18:19 52.30162 4.74602 15 ft 15 kts 311°
2026-05-07 18:19 52.30240 4.74457 15 ft 18 kts 314°
2026-05-07 18:20 52.30320 4.74308 6 ft 15 kts 310°
2026-05-07 18:20 52.30371 4.74189 5 ft 4 kts 279°
2026-05-07 18:20 52.30370 4.74148 4 ft 9 kts 261°
2026-05-07 18:20 52.30310 4.74013 4 ft 19 kts 214°
2026-05-07 18:21 52.30203 4.73887 4 ft 20 kts 233°
2026-05-07 18:21 52.30240 4.73741 2 ft 14 kts
2026-05-07 18:21 52.30257 4.73743 2 ft 0 kts
2026-05-07 18:21 52.30276 4.73744 1 ft 19 kts
2026-05-07 18:22 52.30660 4.73781 3 ft 90 kts
2026-05-07 18:22 52.31163 4.73826 4 ft 128 kts
2026-05-07 18:22 52.32563 4.73928 355 ft 155 kts
2026-05-07 18:22 52.33635 4.74128 899 ft 155 kts 18°
2026-05-07 18:23 52.34652 4.74803 1430 ft 163 kts 26°
2026-05-07 18:23 52.35750 4.75595 1810 ft 182 kts 28°
2026-05-07 18:23 52.36799 4.76932 2101 ft 203 kts 53°
2026-05-07 18:23 52.37398 4.79072 2567 ft 215 kts 83°
2026-05-07 18:24 52.37266 4.81528 3188 ft 223 kts 108°
2026-05-07 18:24 52.36452 4.83747 3782 ft 234 kts 136°
2026-05-07 18:24 52.35050 4.85080 4479 ft 241 kts 165°
2026-05-07 18:24 52.33342 4.85292 5033 ft 253 kts 182°
2026-05-07 18:25 52.31561 4.85145 5776 ft 258 kts 183°
2026-05-07 18:25 52.29758 4.85019 6573 ft 260 kts 183°
2026-05-07 18:25 52.27933 4.84924 7287 ft 265 kts 182°
2026-05-07 18:25 52.26073 4.84846 8014 ft 269 kts 182°
2026-05-07 18:26 52.24188 4.84782 8778 ft 273 kts 182°
2026-05-07 18:26 52.22265 4.84728 9500 ft 279 kts 181°
2026-05-07 18:26 52.20307 4.84680 10219 ft 285 kts 181°
2026-05-07 18:26 52.18267 4.84633 10585 ft 303 kts 182°
2026-05-07 18:27 52.16083 4.84583 10872 ft 323 kts 181°
2026-05-07 18:27 52.13772 4.84533 11140 ft 342 kts 182°
2026-05-07 18:27 52.11351 4.84482 11416 ft 357 kts 182°
2026-05-07 18:27 52.09676 4.84447 11731 ft 363 kts 181°
2026-05-07 18:28 52.06253 4.84375 12451 ft 373 kts 181°
2026-05-07 18:28 52.03614 4.84281 12739 ft 386 kts 184°
2026-05-07 18:28 52.00991 4.83457 12901 ft 396 kts 200°
2026-05-07 18:28 51.98425 4.81615 13035 ft 399 kts 207°
2026-05-07 18:29 51.95943 4.79613 13177 ft 391 kts 207°
2026-05-07 18:29 51.93588 4.77719 13849 ft 375 kts 207°
2026-05-07 18:29 51.91227 4.75841 14429 ft 377 kts 207°
2026-05-07 18:29 51.88878 4.73987 14981 ft 379 kts 206°
2026-05-07 18:30 51.86494 4.72119 15475 ft 382 kts 206°
2026-05-07 18:30 51.84086 4.70236 15992 ft 386 kts 206°
2026-05-07 18:30 51.81665 4.68344 16501 ft 388 kts 207°
2026-05-07 18:30 51.79228 4.66433 16977 ft 391 kts 206°
2026-05-07 18:31 51.76763 4.64515 17469 ft 394 kts 206°
2026-05-07 18:31 51.74286 4.62591 17929 ft 397 kts 206°
2026-05-07 18:31 51.71789 4.60646 18383 ft 400 kts 206°
2026-05-07 18:31 51.69258 4.58750 18782 ft 402 kts 205°
2026-05-07 18:32 51.66687 4.56943 19192 ft 404 kts 204°
2026-05-07 18:32 51.64103 4.55145 19595 ft 406 kts 204°
2026-05-07 18:32 51.61509 4.53319 19999 ft 408 kts 205°
2026-05-07 18:32 51.58935 4.51506 20391 ft 410 kts 204°
2026-05-07 18:33 51.56315 4.49674 20778 ft 412 kts 205°
2026-05-07 18:33 51.53681 4.47837 21174 ft 414 kts 205°
2026-05-07 18:33 51.51036 4.45983 21566 ft 416 kts 205°
2026-05-07 18:33 51.48375 4.44122 21951 ft 418 kts 205°
2026-05-07 18:34 51.45710 4.42264 22350 ft 419 kts 205°
2026-05-07 18:34 51.43029 4.40392 22737 ft 421 kts 205°
2026-05-07 18:34 51.40337 4.38510 23150 ft 423 kts 205°
2026-05-07 18:34 51.37624 4.36626 23557 ft 425 kts 205°
2026-05-07 18:35 51.34898 4.34739 23912 ft 427 kts 205°
2026-05-07 18:35 51.32163 4.32840 24260 ft 429 kts 205°
2026-05-07 18:35 51.29424 4.30926 24604 ft 431 kts 205°
2026-05-07 18:35 51.26665 4.29009 24947 ft 433 kts 205°
2026-05-07 18:36 51.23894 4.27099 25269 ft 435 kts 205°
2026-05-07 18:36 51.21111 4.25177 25608 ft 437 kts 205°
2026-05-07 18:36 51.18317 4.23246 25934 ft 439 kts 205°
2026-05-07 18:36 51.15509 4.21309 26254 ft 440 kts 205°
2026-05-07 18:37 51.12699 4.19372 26557 ft 442 kts 205°
2026-05-07 18:37 51.09865 4.17419 26850 ft 444 kts 205°
2026-05-07 18:37 51.07019 4.15476 27137 ft 445 kts 205°
2026-05-07 18:37 51.04177 4.13531 27428 ft 446 kts 205°
2026-05-07 18:38 51.01312 4.11574 27780 ft 445 kts 205°
2026-05-07 18:38 50.98483 4.09636 28126 ft 444 kts 205°
2026-05-07 18:38 50.95651 4.07700 28485 ft 443 kts 205°
2026-05-07 18:38 50.92819 4.05760 28846 ft 442 kts 205°
2026-05-07 18:39 50.89998 4.03829 29202 ft 442 kts 205°
2026-05-07 18:39 50.87173 4.01904 29547 ft 441 kts 205°
2026-05-07 18:39 50.84361 4.00005 29911 ft 440 kts 205°
2026-05-07 18:39 50.81549 3.98095 30239 ft 439 kts 205°
2026-05-07 18:40 50.78741 3.96194 30492 ft 439 kts 205°
2026-05-07 18:40 50.75927 3.94290 30760 ft 439 kts 205°
2026-05-07 18:40 50.73122 3.92388 31041 ft 439 kts 205°
2026-05-07 18:40 50.70321 3.90494 31330 ft 438 kts 205°
2026-05-07 18:41 50.67524 3.88614 31615 ft 437 kts 205°
2026-05-07 18:41 50.64721 3.86732 31885 ft 437 kts 205°
2026-05-07 18:41 50.61931 3.84872 32150 ft 436 kts 205°
2026-05-07 18:41 50.59173 3.83030 32412 ft 436 kts 205°
2026-05-07 18:42 50.56389 3.81156 32652 ft 435 kts 206°
2026-05-07 18:42 50.53609 3.79284 32894 ft 435 kts 205°
2026-05-07 18:42 50.50829 3.77419 33135 ft 434 kts 206°
2026-05-07 18:42 50.48051 3.75558 33360 ft 434 kts 206°
2026-05-07 18:43 50.46174 3.74305 33514 ft 434 kts 205°
2026-05-07 18:43 50.42499 3.71855 33806 ft 433 kts 205°
2026-05-07 18:43 50.40664 3.70636 33946 ft 432 kts 205°
2026-05-07 18:43 50.36961 3.68176 34212 ft 432 kts 205°
2026-05-07 18:44 50.35129 3.66962 34311 ft 432 kts 205°
2026-05-07 18:44 50.32369 3.65131 34472 ft 431 kts 205°
2026-05-07 18:44 50.29604 3.63294 34624 ft 431 kts 205°
2026-05-07 18:44 50.26844 3.61464 34764 ft 431 kts 205°
2026-05-07 18:45 50.24077 3.59636 34901 ft 431 kts 205°
2026-05-07 18:45 50.21315 3.57815 35044 ft 431 kts 205°
2026-05-07 18:45 50.18548 3.55994 35110 ft 432 kts 205°
2026-05-07 18:46 50.13011 3.52352 35080 ft 431 kts 205°
2026-05-07 18:46 50.07485 3.48723 35073 ft 431 kts 205°
2026-05-07 18:47 50.01947 3.45097 35072 ft 431 kts 205°
2026-05-07 18:47 49.96413 3.41492 35070 ft 431 kts 205°
2026-05-07 18:48 49.90878 3.37895 35057 ft 431 kts 205°
2026-05-07 18:48 49.85333 3.34299 35065 ft 431 kts 204°
2026-05-07 18:49 49.79794 3.30728 35066 ft 431 kts 205°
2026-05-07 18:49 49.74256 3.27155 35066 ft 432 kts 205°
2026-05-07 18:50 49.68725 3.23583 35055 ft 432 kts 205°
2026-05-07 18:50 49.63178 3.20026 35059 ft 431 kts 205°
2026-05-07 18:51 49.57644 3.16461 35059 ft 430 kts 205°
2026-05-07 18:51 49.52111 3.12911 35070 ft 431 kts 205°
2026-05-07 18:52 49.46758 3.08848 35054 ft 429 kts 214°
2026-05-07 18:52 49.41797 3.03792 35061 ft 428 kts 215°
2026-05-07 18:53 49.36840 2.98733 35061 ft 427 kts 215°
2026-05-07 18:53 49.31878 2.93700 35063 ft 427 kts 215°
2026-05-07 18:54 49.26909 2.88686 35062 ft 427 kts 215°
2026-05-07 18:54 49.21934 2.83681 35059 ft 428 kts 215°
2026-05-07 18:55 49.16960 2.78677 35057 ft 428 kts 215°
2026-05-07 18:55 49.12016 2.73715 35054 ft 428 kts 215°
2026-05-07 18:56 49.07044 2.68744 35054 ft 428 kts 215°
2026-05-07 18:56 49.02024 2.63744 35055 ft 427 kts 214°
2026-05-07 18:57 48.97062 2.58802 35056 ft 427 kts 214°
2026-05-07 18:57 48.92089 2.53876 35053 ft 427 kts 213°
2026-05-07 18:57 48.89399 2.51960 35057 ft 431 kts 202°
2026-05-07 18:58 48.86598 2.50508 35064 ft 430 kts 200°
2026-05-07 18:58 48.80915 2.47669 35034 ft 430 kts 201°
2026-05-07 18:59 48.75248 2.44758 35027 ft 430 kts 201°
2026-05-07 18:59 48.69581 2.41855 35026 ft 430 kts 201°
2026-05-07 19:00 48.63916 2.38939 35026 ft 429 kts 201°
2026-05-07 19:00 48.58256 2.36003 35026 ft 429 kts 201°
2026-05-07 19:01 48.52604 2.33104 35032 ft 429 kts 201°
2026-05-07 19:01 48.46945 2.30216 35028 ft 429 kts 201°
2026-05-07 19:02 48.41291 2.27329 35011 ft 429 kts 201°
2026-05-07 19:02 48.35646 2.24458 35024 ft 428 kts 201°
2026-05-07 19:03 48.30001 2.21599 35016 ft 428 kts 201°
2026-05-07 19:03 48.24357 2.18752 35018 ft 428 kts 201°
2026-05-07 19:04 48.18722 2.15894 35017 ft 427 kts 201°
2026-05-07 19:04 48.13004 2.13463 35019 ft 431 kts 191°
2026-05-07 19:05 48.06968 2.13431 35025 ft 435 kts 181°
2026-05-07 19:05 48.00916 2.13863 35042 ft 436 kts 181°
2026-05-07 19:06 47.94867 2.14237 35031 ft 435 kts 181°
2026-05-07 19:06 47.85797 2.14773 35024 ft 435 kts 181°
2026-05-07 19:07 47.79793 2.15121 35001 ft 435 kts 181°
2026-05-07 19:07 47.73742 2.15472 34995 ft 434 kts 181°
2026-05-07 19:08 47.67703 2.15826 34999 ft 434 kts 181°
2026-05-07 19:08 47.61659 2.16177 35016 ft 434 kts 181°
2026-05-07 19:09 47.55619 2.16528 35000 ft 434 kts 181°
2026-05-07 19:09 47.49583 2.16876 35003 ft 434 kts 181°
2026-05-07 19:10 47.43551 2.17226 34999 ft 434 kts 181°
2026-05-07 19:10 47.37510 2.17573 34997 ft 434 kts 181°
2026-05-07 19:11 47.31487 2.17917 34996 ft 433 kts 181°
2026-05-07 19:11 47.25475 2.18261 35003 ft 433 kts 181°
2026-05-07 19:12 47.19458 2.18604 34999 ft 432 kts 181°
2026-05-07 19:12 47.13456 2.18948 34995 ft 431 kts 181°
2026-05-07 19:13 47.07518 2.20041 34995 ft 439 kts 167°
2026-05-07 19:13 47.01793 2.23295 34996 ft 442 kts 162°
2026-05-07 19:14 46.96095 2.26685 34998 ft 441 kts 162°
2026-05-07 19:14 46.90399 2.30020 34998 ft 440 kts 162°
2026-05-07 19:15 46.84703 2.33319 34999 ft 440 kts 162°
2026-05-07 19:15 46.79003 2.36630 35001 ft 440 kts 162°
2026-05-07 19:16 46.73307 2.39925 34996 ft 440 kts 163°
2026-05-07 19:16 46.67613 2.43206 34990 ft 440 kts 163°
2026-05-07 19:17 46.61889 2.46507 34997 ft 442 kts 163°
2026-05-07 19:17 46.56169 2.49792 35000 ft 443 kts 163°
2026-05-07 19:18 46.50454 2.53065 34999 ft 440 kts 162°
2026-05-07 19:18 46.44753 2.56331 35003 ft 440 kts 163°
2026-05-07 19:19 46.39045 2.59587 35004 ft 440 kts 163°
2026-05-07 19:19 46.33337 2.62833 35000 ft 440 kts 162°
2026-05-07 19:20 46.27641 2.66072 35006 ft 440 kts 163°
2026-05-07 19:20 46.21939 2.69303 35005 ft 440 kts 163°
2026-05-07 19:21 46.16240 2.72539 35011 ft 440 kts 163°
2026-05-07 19:21 46.10539 2.75753 35004 ft 439 kts 162°
2026-05-07 19:22 46.04840 2.78953 35007 ft 441 kts 163°
2026-05-07 19:22 45.99122 2.82151 35011 ft 442 kts 163°
2026-05-07 19:23 45.93408 2.85180 34997 ft 440 kts 164°
2026-05-07 19:23 45.87669 2.88208 34999 ft 439 kts 164°
2026-05-07 19:24 45.81931 2.91230 34998 ft 440 kts 164°
2026-05-07 19:24 45.76183 2.94196 34995 ft 438 kts 167°
2026-05-07 19:25 45.73225 2.95104 34984 ft 433 kts 178°
2026-05-07 19:25 45.70232 2.95252 35006 ft 430 kts 184°
2026-05-07 19:25 45.64260 2.95035 35010 ft 430 kts 185°
2026-05-07 19:26 45.58295 2.94839 35013 ft 429 kts 185°
2026-05-07 19:26 45.52332 2.94678 35006 ft 428 kts 184°
2026-05-07 19:27 45.46368 2.94520 35011 ft 428 kts 184°
2026-05-07 19:27 45.40413 2.94364 35008 ft 429 kts 184°
2026-05-07 19:28 45.34451 2.94206 34997 ft 428 kts 184°
2026-05-07 19:28 45.28497 2.94048 35008 ft 428 kts 184°
2026-05-07 19:29 45.22546 2.93893 35007 ft 428 kts 184°
2026-05-07 19:29 45.16639 2.93741 35002 ft 427 kts 184°
2026-05-07 19:30 45.10689 2.93584 34999 ft 427 kts 184°
2026-05-07 19:30 45.04744 2.93437 35003 ft 427 kts 184°
2026-05-07 19:31 44.98799 2.93283 34998 ft 427 kts 184°
2026-05-07 19:31 44.92851 2.93142 34996 ft 430 kts 184°
2026-05-07 19:32 44.87900 2.93016 34991 ft 427 kts 184°
2026-05-07 19:32 44.81965 2.92733 34993 ft 427 kts 186°
2026-05-07 19:33 44.76031 2.92301 34993 ft 426 kts 186°
2026-05-07 19:33 44.70110 2.91868 34993 ft 426 kts 186°
2026-05-07 19:34 44.64181 2.91438 34991 ft 426 kts 186°
2026-05-07 19:34 44.58259 2.91002 34989 ft 426 kts 186°
2026-05-07 19:35 44.52332 2.90575 34986 ft 426 kts 186°
2026-05-07 19:35 44.46402 2.90137 34992 ft 427 kts 186°
2026-05-07 19:36 44.40473 2.89709 34990 ft 426 kts 186°
2026-05-07 19:36 44.34561 2.89285 34982 ft 425 kts 186°
2026-05-07 19:37 44.28646 2.88858 34988 ft 424 kts 186°
2026-05-07 19:37 44.22740 2.88434 34985 ft 424 kts 186°
2026-05-07 19:38 44.16844 2.88008 34986 ft 423 kts 186°
2026-05-07 19:38 44.10986 2.87589 34988 ft 422 kts 186°
2026-05-07 19:39 44.05165 2.87173 34992 ft 422 kts 186°
2026-05-07 19:39 43.99309 2.86759 34982 ft 421 kts 186°
2026-05-07 19:40 43.93511 2.86341 34990 ft 415 kts 187°
2026-05-07 19:40 43.87742 2.85930 34990 ft 415 kts 187°
2026-05-07 19:41 43.81968 2.85520 34997 ft 415 kts 187°
2026-05-07 19:41 43.76192 2.85264 34997 ft 412 kts 184°
2026-05-07 19:42 43.70462 2.85340 34997 ft 412 kts 184°
2026-05-07 19:42 43.64728 2.85428 34996 ft 412 kts 184°
2026-05-07 19:43 43.58993 2.85509 34993 ft 412 kts 185°
2026-05-07 19:43 43.53312 2.85591 34994 ft 407 kts 185°
2026-05-07 19:44 43.47636 2.85673 34998 ft 406 kts 185°
2026-05-07 19:44 43.41982 2.85757 34991 ft 406 kts 185°
2026-05-07 19:45 43.36332 2.85840 34984 ft 405 kts 185°
2026-05-07 19:45 43.30686 2.85926 34986 ft 404 kts 185°
2026-05-07 19:46 43.25051 2.86009 34984 ft 405 kts 185°
2026-05-07 19:46 43.19426 2.86080 34982 ft 405 kts 185°
2026-05-07 19:47 43.13788 2.86157 34980 ft 405 kts 184°
2026-05-07 19:47 43.08150 2.86243 34984 ft 405 kts 184°
2026-05-07 19:48 43.02558 2.86329 34976 ft 404 kts 184°
2026-05-07 19:48 42.96937 2.86402 34978 ft 403 kts 184°
2026-05-07 19:49 42.91339 2.86481 34980 ft 401 kts 184°
2026-05-07 19:49 42.88567 2.86522 34732 ft 397 kts 184°
2026-05-07 19:49 42.85794 2.86559 34389 ft 398 kts 184°
2026-05-07 19:50 42.83037 2.86595 33831 ft 396 kts 184°
2026-05-07 19:50 42.80286 2.86634 33141 ft 395 kts 184°
2026-05-07 19:50 42.77535 2.86673 32478 ft 395 kts 184°
2026-05-07 19:50 42.74797 2.86655 31813 ft 392 kts 187°
2026-05-07 19:51 42.72079 2.86385 31165 ft 391 kts 188°
2026-05-07 19:51 42.69373 2.86063 30532 ft 390 kts 189°
2026-05-07 19:51 42.66670 2.85736 29930 ft 388 kts 188°
2026-05-07 19:51 42.63985 2.85417 29194 ft 388 kts 188°
2026-05-07 19:52 42.61298 2.85101 28485 ft 387 kts 188°
2026-05-07 19:52 42.58621 2.84786 27872 ft 385 kts 188°
2026-05-07 19:52 42.55955 2.84473 27276 ft 384 kts 188°
2026-05-07 19:52 42.53297 2.84163 26707 ft 383 kts 188°
2026-05-07 19:53 42.50640 2.83853 26126 ft 382 kts 188°
2026-05-07 19:53 42.47950 2.83283 25717 ft 399 kts 198°
2026-05-07 19:53 42.45404 2.81771 25427 ft 401 kts 212°
2026-05-07 19:53 42.43082 2.79699 25184 ft 401 kts 215°
2026-05-07 19:54 42.40784 2.77562 24942 ft 400 kts 215°
2026-05-07 19:54 42.38483 2.75447 24693 ft 400 kts 215°
2026-05-07 19:54 42.36182 2.73350 24449 ft 398 kts 214°
2026-05-07 19:54 42.33908 2.71295 24217 ft 397 kts 214°
2026-05-07 19:55 42.31581 2.69198 23977 ft 397 kts 214°
2026-05-07 19:55 42.29311 2.67155 23759 ft 396 kts 214°
2026-05-07 19:55 42.27029 2.65099 23349 ft 392 kts 214°
2026-05-07 19:55 42.24775 2.63066 22733 ft 387 kts 214°
2026-05-07 19:56 42.22547 2.61062 22100 ft 383 kts 214°
2026-05-07 19:56 42.20337 2.59078 21463 ft 380 kts 214°
2026-05-07 19:56 42.18143 2.57112 20870 ft 377 kts 214°
2026-05-07 19:56 42.15968 2.55169 20309 ft 373 kts 214°
2026-05-07 19:57 42.13816 2.53246 19758 ft 370 kts 214°
2026-05-07 19:57 42.11678 2.51337 19220 ft 367 kts 214°
2026-05-07 19:57 42.09558 2.49438 18705 ft 365 kts 214°
2026-05-07 19:57 42.07444 2.47543 18182 ft 365 kts 214°
2026-05-07 19:58 42.05330 2.45657 17626 ft 363 kts 214°
2026-05-07 19:58 42.03228 2.43786 17085 ft 362 kts 214°
2026-05-07 19:58 42.01134 2.41919 16549 ft 361 kts 214°
2026-05-07 19:58 41.99037 2.40055 16008 ft 361 kts 214°
2026-05-07 19:59 41.96945 2.38196 15530 ft 359 kts 214°
2026-05-07 19:59 41.94865 2.36352 15052 ft 358 kts 213°
2026-05-07 19:59 41.92791 2.34513 14554 ft 357 kts 214°
2026-05-07 19:59 41.90722 2.32676 14055 ft 356 kts 213°
2026-05-07 20:00 41.88661 2.30849 13547 ft 355 kts 213°
2026-05-07 20:00 41.86606 2.29030 13051 ft 353 kts 213°
2026-05-07 20:00 41.84563 2.27219 12562 ft 351 kts 213°
2026-05-07 20:00 41.82527 2.25416 12081 ft 349 kts 213°
2026-05-07 20:01 41.80510 2.23632 11615 ft 347 kts 213°
2026-05-07 20:01 41.78515 2.21868 11224 ft 339 kts 213°
2026-05-07 20:01 41.76511 2.20325 10988 ft 325 kts 202°
2026-05-07 20:01 41.74417 2.19395 10827 ft 310 kts 198°
2026-05-07 20:02 41.72530 2.18161 10675 ft 296 kts 212°
2026-05-07 20:02 41.70842 2.16633 10542 ft 293 kts 214°
2026-05-07 20:02 41.69170 2.15078 10415 ft 292 kts 214°
2026-05-07 20:02 41.67497 2.13532 10289 ft 292 kts 214°
2026-05-07 20:03 41.65825 2.11998 10175 ft 292 kts 214°
2026-05-07 20:03 41.64148 2.10471 10051 ft 291 kts 214°
2026-05-07 20:03 41.62477 2.08949 9927 ft 291 kts 213°
2026-05-07 20:03 41.60805 2.07437 9806 ft 290 kts 213°
2026-05-07 20:04 41.59131 2.05926 9676 ft 290 kts 213°
2026-05-07 20:04 41.57466 2.04418 9547 ft 289 kts 213°
2026-05-07 20:04 41.55819 2.02926 9419 ft 289 kts 214°
2026-05-07 20:04 41.54137 2.01405 9291 ft 288 kts 213°
2026-05-07 20:05 41.52496 1.99925 9160 ft 288 kts 213°
2026-05-07 20:05 41.50835 1.98425 9039 ft 288 kts 213°
2026-05-07 20:05 41.49176 1.96929 8921 ft 287 kts 213°
2026-05-07 20:05 41.47526 1.95437 8817 ft 287 kts 213°
2026-05-07 20:06 41.45871 1.93941 8702 ft 286 kts 213°
2026-05-07 20:06 41.44222 1.92455 8572 ft 286 kts 213°
2026-05-07 20:06 41.42572 1.90969 8445 ft 286 kts 213°
2026-05-07 20:06 41.40928 1.89490 8337 ft 285 kts 213°
2026-05-07 20:07 41.39287 1.88015 8216 ft 284 kts 213°
2026-05-07 20:07 41.37659 1.86553 7995 ft 279 kts 213°
2026-05-07 20:07 41.36051 1.85111 7496 ft 278 kts 213°
2026-05-07 20:07 41.34432 1.83657 6772 ft 283 kts 213°
2026-05-07 20:08 41.32794 1.82174 6197 ft 285 kts 213°
2026-05-07 20:08 41.31172 1.80693 5713 ft 281 kts 213°
2026-05-07 20:08 41.29574 1.79224 5242 ft 278 kts 213°
2026-05-07 20:08 41.27996 1.77761 4784 ft 274 kts 214°
2026-05-07 20:09 41.26586 1.76129 4554 ft 267 kts 226°
2026-05-07 20:09 41.25511 1.74139 4146 ft 267 kts 242°
2026-05-07 20:09 41.24743 1.71890 3885 ft 267 kts 245°
2026-05-07 20:10 41.23252 1.67371 4069 ft 269 kts 245°
2026-05-07 20:10 41.22488 1.65101 4054 ft 270 kts 244°
2026-05-07 20:10 41.21678 1.62859 4021 ft 268 kts 236°
2026-05-07 20:10 41.20459 1.61006 4013 ft 266 kts 217°
2026-05-07 20:11 41.18835 1.59906 4003 ft 263 kts 192°
2026-05-07 20:11 41.17027 1.59796 4000 ft 258 kts 168°
2026-05-07 20:11 41.15396 1.60671 3586 ft 254 kts 143°
2026-05-07 20:11 41.14318 1.62481 3156 ft 254 kts 109°
2026-05-07 20:12 41.14212 1.64791 3011 ft 255 kts 76°
2026-05-07 20:12 41.14908 1.66958 2997 ft 257 kts 62°
2026-05-07 20:12 41.15844 1.68985 2989 ft 258 kts 59°
2026-05-07 20:12 41.16784 1.71004 3006 ft 257 kts 60°
2026-05-07 20:13 41.17661 1.73067 3009 ft 256 kts 63°
2026-05-07 20:13 41.18449 1.75110 3004 ft 240 kts 65°
2026-05-07 20:13 41.19145 1.77074 2988 ft 235 kts 66°
2026-05-07 20:13 41.19824 1.79039 3003 ft 235 kts 66°
2026-05-07 20:14 41.20502 1.81010 3003 ft 234 kts 66°
2026-05-07 20:14 41.21178 1.82978 3006 ft 235 kts 66°
2026-05-07 20:14 41.21825 1.84861 2978 ft 217 kts 66°
2026-05-07 20:14 41.22425 1.86608 2975 ft 203 kts 66°
2026-05-07 20:15 41.22982 1.88231 3023 ft 179 kts 67°
2026-05-07 20:15 41.23476 1.89671 2893 ft 164 kts 67°
2026-05-07 20:15 41.23932 1.91000 2689 ft 154 kts 67°
2026-05-07 20:15 41.24375 1.92292 2490 ft 153 kts 66°
2026-05-07 20:16 41.24818 1.93584 2283 ft 154 kts 66°
2026-05-07 20:16 41.25258 1.94866 2078 ft 153 kts 66°
2026-05-07 20:16 41.25695 1.96141 1880 ft 150 kts 66°
2026-05-07 20:16 41.26125 1.97396 1710 ft 151 kts 66°
2026-05-07 20:17 41.26555 1.98649 1487 ft 146 kts 66°
2026-05-07 20:17 41.26975 1.99875 1284 ft 144 kts 65°
2026-05-07 20:17 41.27391 2.01089 1082 ft 144 kts 66°
2026-05-07 20:17 41.27806 2.02297 932 ft 143 kts 65°
2026-05-07 20:18 41.28228 2.03503 699 ft 144 kts 66°
2026-05-07 20:18 41.28638 2.04728 477 ft 144 kts 65°
2026-05-07 20:18 41.29050 2.05939 297 ft 144 kts 65°
2026-05-07 20:18 41.29467 2.07140 96 ft 143 kts 65°
2026-05-07 20:19 41.29859 2.08292 28 ft 125 kts 65°
2026-05-07 20:19 41.30116 2.09066 23 ft 45 kts 78°
2026-05-07 20:19 41.30130 2.09361 20 ft 19 kts 93°
2026-05-07 20:19 41.30065 2.09422 22 ft 14 kts 213°
2026-05-07 20:20 41.30033 2.09348 22 ft 15 kts 247°
2026-05-07 20:20 41.29973 2.09169 23 ft 16 kts 244°
2026-05-07 20:20 41.29925 2.09028 23 ft 17 kts 245°
2026-05-07 20:20 41.29894 2.08932 25 ft 15 kts 244°
2026-05-07 20:21 41.29848 2.08803 26 ft 16 kts 244°
2026-05-07 20:21 41.29800 2.08663 23 ft 17 kts 245°
2026-05-07 20:21 41.29749 2.08510 22 ft 19 kts 244°
2026-05-07 20:21 41.29693 2.08351 22 ft 18 kts 245°
2026-05-07 20:22 41.29624 2.08223 21 ft 19 kts 164°
2026-05-07 20:22 41.29503 2.08293 23 ft 20 kts 154°
2026-05-07 20:22 41.29374 2.08371 24 ft 21 kts 153°
2026-05-07 20:22 41.29239 2.08450 26 ft 19 kts 168°
2026-05-07 20:23 41.29156 2.08424 25 ft 12 kts 199°
2026-05-07 20:23 41.29088 2.08391 24 ft 8 kts 203°
2026-05-07 20:23 41.29061 2.08366 25 ft 2 kts 220°
2026-05-07 20:23 41.29046 2.08343 24 ft 10 kts 232°
2026-05-07 20:24 41.29005 2.08226 24 ft 14 kts 244°
2026-05-07 20:24 41.28967 2.08108 24 ft 10 kts 268°
2026-05-07 20:24 41.29012 2.08060 24 ft 8 kts 336°
2026-05-07 20:24 41.29027 2.08051 26 ft 0 kts 334°